Tracking 18793 objects as of 24-September-2017
HD Live streaming from Space Station
objects crossing your sky now

FENGYUN 2B

Track FENGYUN 2B now!
FENGYUN 2B is classified as:


NORAD ID: 26382
Int'l Code: 2000-032A
Perigee: 35,821.1 km
Apogee: 35,873.3 km
Inclination: 10.1 °
Period: 1,438.8 minutes
Semi major axis: 42218 km
RCS: 15.8489 m2 (large)
Launch date: June 25, 2000
Source: People's Republic of China (PRC)
Launch site: Xichang Space Center, China (XSC)

Scanning radiometer, a cloud mapper, water vapor scanner to provide timely weather data; provides hoursly full-disk images of Earth in visible and infrared wavelengths.
aabbcc
Your satellite tracking list
Your tracking list is empty





NASA's NSSDC Master Catalog

Two Line Element Set (TLE):
1 26382U 00032A   17266.37454825 -.00000289 +00000-0 +00000-0 0  9996
2 26382 010.0565 039.4487 0006189 230.5948 161.1286 01.00081329063019
Source of the keplerian elements: AFSPC